This demonstration page uses our WeatherBlox Daily Observations layout. Learn more.

Left ArrowRight Arrow

39.08367, -84.50855

Hourly Observations for March 15, 2020

Temp ( °F °C ) Dew Point ( °F °C ) Humidity (%) Winds ( mph kmh ) Pressure ( in mb ) Visibility ( mi km ) Precip ( " mm )
12:53 am 00:53 Cloudy 36 2.2 33 0.6 89 89 NNE 8 13 30.43 1031 10 16 N/A
1:31 am 01:31 Cloudy 37 2.8 33 0.6 86 86 NE 8 13 30.45 1031 10 16 N/A
1:53 am 01:53 Cloudy 37 2.8 33 0.6 86 86 NE 8 13 30.44 1031 10 16 N/A
2:53 am 02:53 Cloudy 36 2.2 32 undefined 86 86 NE 9 15 30.45 1031 10 16 N/A
3:53 am 03:53 Cloudy 36 2.2 32 undefined 86 86 NNE 8 13 30.46 1032 10 16 N/A
4:53 am 04:53 Cloudy 35 1.7 30 -1.1 82 82 NNE 13 20 30.46 1032 10 16 N/A
5:53 am 05:53 Cloudy 35 1.7 30 -1.1 82 82 NE 12 19 30.49 1032 10 16 N/A
6:53 am 06:53 Cloudy 35 1.7 29 -1.7 78 78 NE 10 17 30.50 1033 10 16 N/A
7:53 am 07:53 Cloudy 35 1.7 30 -1.1 82 82 NE 6 9 30.51 1033 10 16 N/A
8:06 am 08:06 Cloudy 35 1.7 30 -1.1 82 82 NE 5 7 30.52 1034 10 16 N/A
8:27 am 08:27 Cloudy 35 1.7 30 -1.1 82 82 NNE 9 15 30.53 1034 10 16 N/A
8:53 am 08:53 Cloudy 36 2.2 30 -1.1 79 79 NNE 10 17 30.53 1034 10 16 N/A
9:53 am 09:53 Cloudy 36 2.2 29 -1.7 76 76 NNE 12 19 30.55 1034 10 16 N/A
10:53 am 10:53 Cloudy 37 2.8 29 -1.7 73 73 NNE 15 24 30.57 1035 10 16 N/A
11:53 am 11:53 Cloudy 39 3.9 30 -1.1 70 70 NNE 10 17 30.58 1036 10 16 N/A
12:53 pm 12:53 Cloudy 43 6.1 32 undefined 65 65 ENE 8 13 30.57 1035 10 16 N/A
1:53 pm 13:53 Partly Cloudy 46 7.8 34 1.1 63 63 NE 7 11 30.54 1034 10 16 N/A
2:53 pm 14:53 Cloudy 45 7.2 32 undefined 61 61 NNE 13 20 30.51 1033 10 16 N/A
3:53 pm 15:53 Cloudy 45 7.2 33 0.6 63 63 NE 14 22 30.50 1033 10 16 N/A
4:53 pm 16:53 Cloudy 44 6.7 32 undefined 63 63 ENE 9 15 30.50 1033 10 16 N/A
5:53 pm 17:53 Cloudy 43 6.1 32 undefined 65 65 NE 9 15 30.50 1033 10 16 N/A
6:53 pm 18:53 Cloudy 43 6.1 32 undefined 65 65 NE 6 9 30.50 1033 10 16 N/A
7:53 pm 19:53 Cloudy 43 6.1 33 0.6 68 68 NE 3 6 30.50 1033 10 16 N/A
8:53 pm 20:53 Cloudy 43 6.1 33 0.6 68 68 N N/A 30.50 1033 10 16 N/A
9:53 pm 21:53 Cloudy 42 5.6 34 1.1 73 73 NE 5 7 30.49 1033 10 16 N/A
10:53 pm 22:53 Cloudy 43 6.1 34 1.1 71 71 NE 8 13 30.49 1033 10 16 N/A
11:53 pm 23:53 Cloudy 42 5.6 33 0.6 71 71 NE 6 9 30.48 1032 10 16 N/A

Powered by AerisWeather